TimeCST,TemperatureF,Dew PointF,Humidity,Sea Level PressureIn,VisibilityMPH,Wind Direction,Wind SpeedMPH,Gust SpeedMPH,PrecipitationIn,Events,Conditions,WindDirDegrees,DateUTC
12:53 AM,53.1,25.0,34,29.94,10.0,Variable,5.8,-,N/A,,Clear,0,2012-01-06 06:53:00
1:53 AM,48.2,24.8,40,29.95,10.0,SSE,4.6,-,N/A,,Clear,160,2012-01-06 07:53:00
2:53 AM,50.0,25.0,38,29.94,10.0,Calm,Calm,-,N/A,,Clear,0,2012-01-06 08:53:00
3:53 AM,48.9,27.0,43,29.94,10.0,East,4.6,-,N/A,,Clear,90,2012-01-06 09:53:00
4:53 AM,52.0,27.0,38,29.93,10.0,South,3.5,-,N/A,,Clear,180,2012-01-06 10:53:00
5:53 AM,50.0,27.0,41,29.93,10.0,Calm,Calm,-,N/A,,Clear,0,2012-01-06 11:53:00
6:53 AM,53.1,28.0,38,29.94,10.0,Variable,4.6,-,N/A,,Clear,0,2012-01-06 12:53:00
7:53 AM,52.0,30.0,43,29.94,10.0,Calm,Calm,-,N/A,,Clear,0,2012-01-06 13:53:00
8:53 AM,55.9,33.1,42,29.94,10.0,Calm,Calm,-,N/A,,Clear,0,2012-01-06 14:53:00
9:53 AM,61.0,37.0,41,29.94,10.0,SSW,8.1,18.4,N/A,,Clear,200,2012-01-06 15:53:00
10:53 AM,64.0,37.0,37,29.91,10.0,SW,17.3,23.0,N/A,,Clear,220,2012-01-06 16:53:00
11:53 AM,64.9,43.0,45,29.88,10.0,SW,16.1,24.2,N/A,,Clear,230,2012-01-06 17:53:00
12:53 PM,66.2,46.4,49,29.87,10.0,SSW,13.8,21.9,N/A,,Partly Cloudy,210,2012-01-06 18:53:00
1:53 PM,66.0,46.9,50,29.83,10.0,SSW,13.8,26.5,N/A,,Scattered Clouds,210,2012-01-06 19:53:00
2:53 PM,66.0,45.0,47,29.83,10.0,SW,16.1,23.0,N/A,,Clear,220,2012-01-06 20:53:00
3:53 PM,64.0,45.0,50,29.83,10.0,SW,9.2,18.4,N/A,,Clear,220,2012-01-06 21:53:00
4:53 PM,61.0,46.0,58,29.85,10.0,South,6.9,-,N/A,,Clear,180,2012-01-06 22:53:00
5:53 PM,55.4,44.6,67,29.87,10.0,South,3.5,-,N/A,,Clear,180,2012-01-06 23:53:00
6:53 PM,54.0,45.0,72,29.88,10.0,SSE,4.6,-,N/A,,Clear,160,2012-01-07 00:53:00
7:53 PM,55.9,46.9,72,29.89,10.0,Variable,3.5,-,N/A,,Clear,0,2012-01-07 01:53:00
8:53 PM,53.1,46.9,80,29.91,10.0,SSW,4.6,-,N/A,,Clear,210,2012-01-07 02:53:00
9:53 PM,54.0,45.0,72,29.91,10.0,SW,8.1,-,N/A,,Clear,230,2012-01-07 03:53:00
10:53 PM,55.9,46.0,69,29.91,10.0,WSW,9.2,-,N/A,,Clear,240,2012-01-07 04:53:00
11:53 PM,51.1,45.0,80,29.93,10.0,WNW,4.6,-,N/A,,Clear,300,2012-01-07 05:53:00